AirNav   ATP
 
 436 users online  

2J5 Millen Airport
Millen, Georgia, USA

GOING TO MILLEN?


FAA INFORMATION EFFECTIVE 26 APRIL 2018

Location

FAA Identifier: 2J5
Lat/Long: 32-53-34.9000N / 081-57-54.8000W
32-53.581667N / 081-57.913333W
32.8930278 / -81.9652222
(estimated)
Elevation: 240.4 ft. / 73.3 m (surveyed)
Variation: 05W (2000)
From city: 5 miles N of MILLEN, GA
Time zone: UTC -4 (UTC -5 during Standard Time)
Zip code: 30822

Airport Operations

Airport use: Open to the public
Activation date: 08/1967
Control tower: no
ARTCC: ATLANTA CENTER
FSS: MACON FLIGHT SERVICE STATION
NOTAMs facility: MCN (NOTAM-D service available)
Attendance: UNATNDD
Wind indicator: lighted
Segmented circle: yes
Lights: DUSK-2200. MIRL, REIL AND PAPI RY 17/35 OPERATES DUSK-2200; AFTER 2200 ACTVT - CTAF.
Beacon: white-green (lighted land airport)
Operates sunset to sunrise.

Airport Communications

CTAF: 122.9
AUGUSTA APPROACH: 126.8
AUGUSTA DEPARTURE: 126.8

Nearby radio navigation aids

VOR radial/distance  VOR name  Freq  Var
ALDr259/(34.6)ALLENDALE VOR116.7001W

 
NDB name  Hdg/Dist  Freq  Var  ID
MILLENat field20505WLNH .-.. -. ....
SYLVANIA312/23.824504WJYL .--- -.-- .-..
EMANUEL COUNTY067/28.130906WEEX . . -..-
EMORY181/34.238504WEMR . -- .-.

Airport Services

Fuel available: 100LL JET-A
Parking: tiedowns
Airframe service: NONE
Powerplant service: NONE
Bottled oxygen: NONE
Bulk oxygen: NONE

Runway Information

Runway 17/35

Dimensions: 5001 x 75 ft. / 1524 x 23 m
Surface: asphalt, in good condition
Weight bearing capacity: 
Single wheel: 16.5
Runway edge lights: medium intensity
RUNWAY 17  RUNWAY 35
Latitude: 32-53.983643N32-53.178385N
Longitude: 081-58.018257W081-57.807823W
Elevation: 240.3 ft.221.2 ft.
Gradient: 0.2%0.2%
Traffic pattern: rightleft
Runway heading: 173 magnetic, 168 true353 magnetic, 348 true
Markings: nonprecision, in good conditionnonprecision, in good condition
Visual slope indicator: 2-light PAPI on right (3.00 degrees glide path)2-light PAPI on left (3.00 degrees glide path)
Runway end identifier lights: yesyes
Touchdown point: yes, no lightsyes, no lights

Airport Ownership and Management from official FAA records

Ownership: Publicly-owned
Owner: JENKINS CO
PO BOX 797
MILLEN, GA 30442
Phone 478-982-2563
Manager: GRADY LANE
PO BOX 797
MILLEN, GA 30442
Phone 706-871-8432

Airport Operational Statistics

Aircraft based on the field: 7
Single engine airplanes: 7
    
Aircraft operations: avg 38/week *
50% transient general aviation
50% local general aviation
* for 12-month period ending 31 December 2017

Additional Remarks

DEER ON & INVOF ARPT.

Instrument Procedures

NOTE: All procedures below are presented as PDF files. If you need a reader for these files, you should download the free Adobe Reader.

NOT FOR NAVIGATION. Please procure official charts for flight.
FAA instrument procedures published for use from 26 April 2018 at 901Z to 24 May 2018 at 0900Z.

 
IAPs - Instrument Approach Procedures
RNAV (GPS) RWY 17   download (206KB)
RNAV (GPS) RWY 35   download (216KB)
NDB RWY 17   download (174KB)
NOTE: Special Take-Off Minimums/Departure Procedures apply   download (286KB)

Other nearby airports with instrument procedures:

KBXG - Burke County Airport (9 nm N)
2J3 - Louisville Municipal Airport (22 nm W)
KJYL - Plantation Airpark (24 nm SE)
KSBO - East Georgia Regional Airport (27 nm SW)
KTBR - Statesboro-Bulloch County Airport (27 nm SE)
 
Loc | Ops | Rwys | IFR | FBO | Links
Com | Nav | Svcs | Stats | Notes

AirNav Hotels Sweepstakes
 
Area around 2J5 (Millen Airport)
 
Road maps at: MapQuest Bing Google
 
Aerial photo
WARNING: Photo may not be current or correct
Aerial photo of 2J5 (Millen Airport)
Photo taken 27-Sep-2016
looking north.

Do you have a better or more recent aerial photo of Millen Airport that you would like to share? If so, please send us your photo.

 
Sectional chart

 
Airport distance calculator
Flying to Millen Airport? Find the distance to fly.

From to 2J5

Sunrise and sunset
Times for 23-May-2018
 Local
(UTC-4)
 Zulu
(UTC)
Morning civil twilight05:5709:57
Sunrise06:2510:25
Sunset20:2400:24
Evening civil twilight20:5200:52

Current date and time
Zulu (UTC)  23-May-2018 05:58:57
Local (UTC-4)  23-May-2018 01:58:57
 
METAR
KJYL 
24nm SE 
230535Z AUTO 00000KT 5SM BR CLR 22/22 A3010 RMK AO2 T02200220
KSBO 
27nm SW 
230535Z AUTO 00000KT 10SM BKN026 22/22 A3010 RMK AO2
KTBR 
27nm SE 
230535Z AUTO 00000KT 10SM CLR 22/21 A3009 RMK AO2 T02170212
KAGS 
28nm N 
230553Z AUTO 00000KT 10SM -RA FEW029 FEW085 BKN110 21/21 A3008 RMK AO2 SLP184 P0015 60125 T02060206 10239 20206 58004
KDNL 
35nm N 
230553Z AUTO 13004KT 10SM -RA FEW080 FEW100 SCT120 21/20 A3010 RMK AO2 SLP187 P0005 60019 T02110200 10239 20211 58005
KAQX 
36nm E 
230555Z AUTO 00000KT 7SM SCT050 BKN060 BKN080 21/21 A3008 RMK AO2
KBNL 
36nm NE 
230555Z AUTO 00000KT 8SM -DZ BKN006 BKN011 OVC049 22/21 A3009 RMK AO2
KCWV 
42nm S 
230535Z AUTO 00000KT 7SM CLR 22/22 A3009 RMK AO2 T02200215
KOKZ 
44nm W 
230535Z AUTO 00000KT 10SM RA BKN065 BKN075 OVC110 19/19 A3007 RMK AO2 T01870187
KVDI 
46nm SW 
230535Z AUTO 00000KT 7SM SCT022 BKN038 23/21 A3009 RMK AO2
TAF
KAGS 
28nm N 
230523Z 2306/2406 VRB05KT 3SM SHRA OVC020 FM230800 VRB03KT 2SM BR VCSH OVC004 FM231500 22006KT P6SM VCSH BKN020 FM231700 22006KT P6SM VCTS BKN035CB TEMPO 2318/2322 +SHRA OVC020 FM240100 VRB05KT P6SM VCSH BKN035
KDNL 
35nm N 
230523Z 2306/2406 VRB05KT 3SM SHRA OVC020 FM230800 VRB03KT 5SM BR VCSH OVC004 FM231500 22006KT P6SM VCSH BKN020 FM231700 22006KT P6SM VCTS BKN035CB TEMPO 2318/2322 +SHRA OVC020 FM240100 VRB05KT P6SM VCSH BKN035
NOTAMs
Click for the latest NOTAMs
NOTAMs are issued by the DoD/FAA and will open in a separate window not controlled by AirNav.

 

 
 

FBO, Fuel Providers, and Aircraft Ground Support

  
 Business Name 
 
 Contact 
 
 Services / Description 
 
Fuel Prices
 
Comments
  
Millen-Jenkins County Airport 478-982-2563
478-982-2626
[email]
Aviation fuel, Aircraft parking (ramp or tiedown), Hangar leasing / sales, Restrooms

More info about Millen-Jenkins County Airport
100LL Jet A
SS $3.95 $3.48 
 Updated 14-May-2018
 
   1 read write
SS=Self service
Update Fuel Prices
 

Would you like to see your business listed on this page?

 If your business provides an interesting product or service to pilots, flight crews, aircraft, or users of the Millen Airport, you should consider listing it here.  To start the listing process, click on the button below
 
Add a business
 

Other Pages about Millen Airport

jcmservices.net/2j5info.htm
 
Update a link
 
Copyright © AirNav, LLC. All rights reserved. Privacy Policy  Contact